GFSCGP_prec_precacc24_159.txt.gz
Total_Precipitation_Accumulation
0.00 0.00 0.00 0.00 0.00 0.00 0.02 0.02 0.01 0.11 0.19 0.12 0.05 0.06 0.03 0.07 0.03 0.11 0.09 0.03 0.04 0.06 0.04 0.01 0.02 0.02 0.03 0.02 0.02 0.05 0.01 0.05 0.04 0.01 0.02 0.07 0.00 0.00 0.00 0.00 0.01 0.09 0.18 0.04
0.00 0.00 0.00 0.00 0.00 0.00 0.00 0.00 0.00 0.10 0.09 0.09 0.03 0.03 0.03 0.03 0.01 0.02 0.04 0.07 0.09 0.14 0.11 0.01 0.00 0.02 0.03 0.01 0.01 0.03 0.04 0.03 0.01 0.00 0.00 0.04 0.04 0.00 0.00 0.00 0.02 0.06 0.04 0.01
0.00 0.00 0.00 0.00 0.00 0.00 0.00 0.00 0.00 0.03 0.01 0.02 0.05 0.08 0.07 0.10 0.06 0.02 0.01 0.02 0.04 0.07 0.12 0.10 0.03 0.01 0.02 0.00 0.00 0.00 0.03 0.03 0.01 0.00 0.00 0.04 0.03 0.02 0.03 0.01 0.02 0.00 0.02 0.02
0.00 0.00 0.00 0.00 0.00 0.00 0.00 0.00 0.00 0.00 0.00 0.10 0.08 0.21 0.07 0.11 0.16 0.07 0.01 0.01 0.02 0.05 0.22 0.12 0.02 0.01 0.00 0.00 0.01 0.00 0.01 0.05 0.05 0.02 0.00 0.01 0.05 0.02 0.00 0.00 0.01 0.00 0.02 0.01
0.00 0.00 0.00 0.00 0.00 0.00 0.00 0.00 0.00 0.00 0.00 0.01 0.02 0.06 0.20 0.34 0.28 0.14 0.03 0.01 0.04 0.08 0.12 0.07 0.05 0.02 0.02 0.00 0.01 0.00 0.02 0.06 0.07 0.07 0.03 0.03 0.00 0.00 0.00 0.00 0.00 0.01 0.02 0.02
0.00 0.00 0.00 0.00 0.00 0.00 0.00 0.00 0.00 0.00 0.00 0.00 0.00 0.01 0.17 0.40 0.24 0.11 0.10 0.11 0.07 0.08 0.05 0.05 0.17 0.10 0.09 0.03 0.00 0.01 0.01 0.06 0.06 0.06 0.03 0.02 0.04 0.11 0.02 0.02 0.00 0.02 0.01 0.01
0.00 0.00 0.00 0.00 0.00 0.00 0.00 0.00 0.00 0.00 0.00 0.00 0.00 0.02 0.09 0.06 0.05 0.02 0.08 0.09 0.12 0.04 0.05 0.06 0.11 0.05 0.05 0.03 0.03 0.03 0.01 0.01 0.02 0.01 0.02 0.00 0.04 0.08 0.21 0.19 0.01 0.00 0.01 0.00
0.00 0.00 0.00 0.00 0.00 0.00 0.00 0.00 0.00 0.01 0.04 0.05 0.01 0.06 0.12 0.12 0.04 0.03 0.04 0.10 0.13 0.09 0.02 0.05 0.11 0.10 0.02 0.01 0.00 0.02 0.07 0.01 0.01 0.02 0.04 0.08 0.03 0.05 0.07 0.02 0.02 0.00 0.00 0.01
0.00 0.00 0.00 0.00 0.00 0.00 0.00 0.00 0.00 0.00 0.00 0.02 0.03 0.08 0.04 0.05 0.01 0.03 0.07 0.15 0.14 0.09 0.03 0.03 0.07 0.06 0.01 0.00 0.00 0.00 0.03 0.05 0.01 0.00 0.04 0.04 0.02 0.03 0.02 0.03 0.04 0.01 0.01 0.01
0.00 0.00 0.00 0.00 0.00 0.00 0.00 0.00 0.00 0.00 0.00 0.03 0.16 0.42 0.21 0.10 0.42 0.12 0.13 0.18 0.13 0.13 0.09 0.03 0.01 0.09 0.05 0.01 0.03 0.02 0.01 0.11 0.02 0.00 0.00 0.00 0.00 0.00 0.05 0.09 0.13 0.03 0.02 0.02
0.00 0.00 0.00 0.00 0.00 0.00 0.00 0.00 0.00 0.00 0.01 0.05 0.19 0.36 0.58 0.19 0.47 0.39 0.27 0.14 0.11 0.07 0.06 0.03 0.02 0.05 0.12 0.05 0.02 0.03 0.00 0.09 0.03 0.00 0.00 0.01 0.01 0.00 0.05 0.07 0.07 0.05 0.07 0.12
0.00 0.00 0.00 0.01 0.01 0.00 0.00 0.01 0.01 0.01 0.15 0.15 0.11 0.19 0.33 0.20 0.33 0.48 1.18 0.54 0.42 0.15 0.03 0.07 0.05 0.10 0.07 0.18 0.07 0.15 0.09 0.02 0.05 0.03 0.00 0.00 0.01 0.02 0.03 0.02 0.02 0.04 0.04 0.15
0.00 0.00 0.00 0.00 0.05 0.02 0.00 0.00 0.00 0.00 0.00 0.03 0.06 0.08 0.04 0.11 0.49 0.75 1.39 1.21 0.47 0.47 0.22 0.15 0.12 0.16 0.22 0.24 0.37 0.39 0.37 0.29 0.27 0.13 0.02 0.01 0.00 0.00 0.01 0.03 0.02 0.04 0.04 0.10
0.00 0.00 0.00 0.00 0.03 0.04 0.00 0.01 0.00 0.00 0.02 0.00 0.01 0.04 0.12 0.33 0.39 0.22 0.37 1.09 0.81 0.47 0.63 0.38 0.51 0.88 0.92 0.86 1.02 1.46 1.07 0.60 0.49 0.35 0.24 0.09 0.02 0.00 0.00 0.01 0.02 0.08 0.08 0.12
0.00 0.00 0.00 0.00 0.00 0.00 0.00 0.00 0.02 0.01 0.01 0.02 0.01 0.03 0.48 0.28 0.07 0.01 0.08 0.22 0.32 0.38 0.37 0.35 0.47 0.65 1.43 1.63 1.90 2.00 2.30 1.74 0.97 0.67 0.50 0.30 0.19 0.10 0.08 0.08 0.06 0.06 0.12 0.14
0.00 0.00 0.00 0.00 0.00 0.00 0.00 0.00 0.01 0.04 0.12 0.06 0.04 0.08 0.14 0.03 0.01 0.04 0.09 0.26 0.31 0.25 0.16 0.25 0.35 0.33 0.62 1.04 1.31 1.85 3.05 3.63 2.15 1.11 0.62 0.53 0.47 0.42 0.27 0.28 0.31 0.27 0.19 0.13
0.00 0.00 0.00 0.00 0.00 0.00 0.00 0.00 0.01 0.00 0.01 0.01 0.01 0.27 0.30 0.29 0.07 0.09 0.12 0.13 0.15 0.28 0.28 0.11 0.18 0.23 0.17 0.29 0.45 0.49 0.87 1.99 2.61 2.61 1.72 0.81 0.65 0.46 0.37 0.34 0.41 0.35 0.36 0.46
0.00 0.00 0.00 0.00 0.00 0.01 0.01 0.05 0.01 0.01 0.01 0.11 0.18 0.16 0.28 0.15 0.05 0.02 0.00 0.04 0.11 0.11 0.16 0.10 0.08 0.02 0.01 0.04 0.09 0.10 0.21 0.44 0.67 1.37 2.16 1.79 0.83 0.90 0.74 0.60 0.49 0.38 0.44 0.33
0.00 0.00 0.00 0.00 0.00 0.00 0.00 0.04 0.01 0.00 0.04 0.06 0.14 0.10 0.26 0.09 0.11 0.03 0.00 0.00 0.07 0.11 0.10 0.12 0.14 0.08 0.01 0.02 0.05 0.03 0.04 0.12 0.32 0.47 0.83 1.14 1.22 1.11 1.01 1.04 0.87 0.65 0.56 0.46
0.00 0.00 0.00 0.00 0.00 0.01 0.00 0.01 0.00 0.00 0.07 0.08 0.09 0.05 0.44 0.17 0.21 0.15 0.01 0.00 0.00 0.06 0.04 0.03 0.01 0.04 0.03 0.03 0.03 0.03 0.04 0.04 0.05 0.15 0.33 0.39 0.67 1.07 1.21 1.10 0.91 0.80 0.80 0.62
0.00 0.00 0.00 0.00 0.00 0.00 0.00 0.01 0.00 0.01 0.05 0.03 0.02 0.06 0.27 0.06 0.02 0.02 0.00 0.00 0.00 0.00 0.00 0.00 0.01 0.03 0.02 0.01 0.01 0.03 0.05 0.04 0.07 0.11 0.11 0.23 0.40 0.53 0.80 1.00 0.76 0.56 0.57 0.60
0.00 0.00 0.00 0.00 0.00 0.01 0.00 0.00 0.00 0.01 0.02 0.06 0.05 0.04 0.16 0.10 0.01 0.01 0.00 0.00 0.00 0.00 0.00 0.00 0.00 0.00 0.00 0.00 0.01 0.03 0.09 0.06 0.09 0.14 0.32 0.39 0.56 0.66 0.55 0.54 0.86 0.81 0.55 0.53
0.00 0.00 0.00 0.00 0.01 0.01 0.00 0.00 0.00 0.02 0.03 0.05 0.01 0.00 0.00 0.01 0.01 0.00 0.00 0.00 0.00 0.00 0.00 0.00 0.00 0.00 0.00 0.00 0.01 0.04 0.03 0.03 0.11 0.14 0.36 0.35 0.31 0.46 0.68 0.76 0.71 0.61 0.59 0.52
0.00 0.00 0.00 0.00 0.00 0.00 0.00 0.00 0.01 0.00 0.02 0.07 0.03 0.01 0.00 0.00 0.01 0.00 0.00 0.00 0.00 0.00 0.00 0.00 0.00 0.00 0.00 0.00 0.01 0.03 0.05 0.05 0.08 0.13 0.07 0.08 0.09 0.12 0.14 0.15 0.19 0.28 0.41 0.44
0.02 0.03 0.00 0.00 0.00 0.00 0.01 0.01 0.00 0.00 0.00 0.01 0.00 0.00 0.00 0.01 0.01 0.01 0.00 0.00 0.00 0.00 0.00 0.00 0.00 0.00 0.00 0.00 0.01 0.04 0.06 0.06 0.03 0.18 0.10 0.04 0.02 0.01 0.01 0.01 0.01 0.01 0.02 0.08
0.03 0.02 0.01 0.00 0.00 0.01 0.00 0.00 0.00 0.00 0.00 0.00 0.00 0.00 0.00 0.00 0.00 0.00 0.00 0.00 0.00 0.00 0.00 0.01 0.00 0.00 0.00 0.00 0.01 0.03 0.05 0.07 0.06 0.07 0.06 0.03 0.01 0.00 0.01 0.00 0.00 0.00 0.00 0.01

GFSCGP_prec_precacc24_162.txt.gz
Total_Precipitation_Accumulation
0.00 0.00 0.00 0.00 0.00 0.00 0.09 0.11 0.05 0.18 0.17 0.12 0.06 0.02 0.02 0.07 0.03 0.37 0.27 0.03 0.02 0.02 0.04 0.02 0.02 0.01 0.03 0.02 0.00 0.01 0.01 0.04 0.03 0.01 0.02 0.07 0.00 0.00 0.00 0.00 0.01 0.02 0.02 0.04
0.00 0.00 0.00 0.00 0.00 0.00 0.00 0.02 0.00 0.11 0.09 0.11 0.16 0.04 0.03 0.03 0.01 0.03 0.05 0.05 0.06 0.12 0.10 0.01 0.00 0.02 0.03 0.01 0.00 0.01 0.02 0.02 0.00 0.00 0.00 0.04 0.04 0.00 0.00 0.00 0.02 0.04 0.01 0.01
0.00 0.00 0.00 0.00 0.00 0.00 0.00 0.00 0.00 0.02 0.01 0.02 0.11 0.14 0.14 0.11 0.04 0.03 0.01 0.01 0.04 0.06 0.08 0.09 0.04 0.01 0.03 0.01 0.00 0.00 0.02 0.05 0.00 0.00 0.00 0.04 0.03 0.02 0.03 0.01 0.02 0.00 0.02 0.02
0.00 0.00 0.00 0.00 0.00 0.00 0.00 0.00 0.00 0.00 0.00 0.10 0.09 0.36 0.79 0.43 0.17 0.04 0.01 0.01 0.04 0.05 0.10 0.28 0.16 0.03 0.00 0.01 0.03 0.00 0.02 0.06 0.00 0.01 0.00 0.01 0.05 0.02 0.00 0.00 0.01 0.00 0.02 0.01
0.00 0.00 0.00 0.00 0.00 0.00 0.00 0.00 0.00 0.00 0.00 0.01 0.03 0.09 0.39 0.71 0.29 0.09 0.02 0.01 0.05 0.08 0.07 0.05 0.05 0.05 0.04 0.01 0.15 0.04 0.01 0.06 0.07 0.03 0.04 0.03 0.00 0.00 0.00 0.00 0.00 0.01 0.03 0.02
0.00 0.00 0.00 0.00 0.00 0.00 0.00 0.00 0.00 0.00 0.00 0.00 0.01 0.02 0.18 0.19 0.10 0.37 0.21 0.12 0.08 0.10 0.05 0.04 0.11 0.10 0.16 0.23 0.24 0.05 0.03 0.04 0.05 0.02 0.08 0.09 0.05 0.11 0.02 0.02 0.01 0.02 0.01 0.01
0.00 0.00 0.00 0.00 0.00 0.00 0.00 0.00 0.00 0.00 0.00 0.00 0.00 0.01 0.05 0.05 0.04 0.17 0.43 0.19 0.13 0.06 0.07 0.05 0.10 0.05 0.05 0.13 0.11 0.09 0.05 0.02 0.02 0.00 0.04 0.04 0.06 0.11 0.18 0.18 0.02 0.00 0.00 0.00
0.00 0.00 0.00 0.00 0.00 0.00 0.00 0.00 0.00 0.00 0.02 0.01 0.01 0.04 0.10 0.11 0.04 0.03 0.04 0.08 0.13 0.09 0.03 0.05 0.11 0.10 0.01 0.01 0.01 0.04 0.09 0.02 0.00 0.01 0.03 0.08 0.05 0.04 0.03 0.02 0.01 0.00 0.00 0.01
0.00 0.00 0.00 0.00 0.00 0.00 0.00 0.00 0.00 0.00 0.02 0.05 0.03 0.05 0.03 0.05 0.01 0.03 0.07 0.12 0.14 0.09 0.03 0.03 0.08 0.06 0.01 0.00 0.00 0.00 0.03 0.05 0.01 0.00 0.04 0.07 0.05 0.04 0.02 0.01 0.02 0.01 0.00 0.00
0.00 0.00 0.00 0.00 0.00 0.00 0.00 0.00 0.00 0.00 0.00 0.02 0.09 0.08 0.02 0.00 0.22 0.11 0.13 0.17 0.13 0.13 0.09 0.02 0.01 0.07 0.04 0.01 0.04 0.05 0.02 0.11 0.02 0.00 0.01 0.01 0.01 0.02 0.06 0.06 0.03 0.01 0.01 0.03
0.00 0.00 0.00 0.00 0.00 0.00 0.00 0.00 0.00 0.00 0.00 0.04 0.09 0.04 0.00 0.03 0.42 0.38 0.27 0.14 0.10 0.07 0.06 0.02 0.02 0.04 0.08 0.05 0.02 0.04 0.05 0.09 0.03 0.00 0.00 0.00 0.00 0.00 0.03 0.05 0.05 0.02 0.08 0.18
0.00 0.00 0.00 0.00 0.00 0.00 0.00 0.00 0.00 0.00 0.01 0.05 0.05 0.03 0.01 0.03 0.20 0.48 1.18 0.54 0.41 0.15 0.03 0.07 0.04 0.08 0.05 0.17 0.07 0.15 0.09 0.02 0.05 0.03 0.00 0.00 0.00 0.01 0.01 0.02 0.06 0.06 0.05 0.17
0.00 0.00 0.00 0.00 0.00 0.00 0.00 0.00 0.00 0.00 0.00 0.01 0.02 0.04 0.00 0.02 0.39 0.75 1.39 1.21 0.47 0.47 0.22 0.15 0.11 0.11 0.10 0.15 0.35 0.39 0.37 0.29 0.27 0.13 0.02 0.01 0.00 0.01 0.01 0.00 0.00 0.03 0.04 0.10
0.00 0.00 0.00 0.00 0.00 0.01 0.00 0.00 0.00 0.00 0.00 0.00 0.01 0.02 0.00 0.00 0.09 0.16 0.36 1.09 0.81 0.47 0.63 0.38 0.48 0.36 0.37 0.58 0.88 1.38 1.07 0.60 0.49 0.41 0.27 0.10 0.05 0.00 0.00 0.00 0.01 0.02 0.04 0.10
0.00 0.00 0.00 0.00 0.00 0.00 0.00 0.00 0.00 0.00 0.00 0.00 0.01 0.01 0.00 0.00 0.01 0.01 0.07 0.20 0.31 0.38 0.37 0.34 0.46 0.42 0.70 0.84 1.26 1.38 1.85 1.70 0.99 0.74 0.72 0.64 0.70 0.40 0.19 0.09 0.06 0.07 0.11 0.11
0.00 0.00 0.00 0.00 0.00 0.00 0.00 0.01 0.00 0.00 0.00 0.01 0.00 0.00 0.00 0.00 0.01 0.04 0.08 0.21 0.27 0.23 0.16 0.24 0.34 0.29 0.36 0.64 1.01 1.51 2.25 2.68 1.98 1.18 0.71 0.73 1.03 1.36 0.68 0.41 0.36 0.35 0.23 0.14
0.00 0.00 0.00 0.00 0.00 0.00 0.05 0.00 0.00 0.00 0.01 0.00 0.00 0.00 0.00 0.03 0.06 0.09 0.12 0.11 0.11 0.25 0.24 0.10 0.16 0.19 0.13 0.17 0.32 0.45 0.87 1.73 2.47 2.53 1.70 0.96 0.99 0.93 0.68 0.44 0.45 0.36 0.40 0.49
0.00 0.00 0.00 0.00 0.00 0.00 0.00 0.00 0.00 0.00 0.01 0.11 0.17 0.02 0.00 0.03 0.03 0.02 0.00 0.04 0.10 0.10 0.13 0.07 0.04 0.01 0.01 0.04 0.08 0.10 0.23 0.49 0.71 1.50 2.39 2.18 1.36 1.30 0.96 0.67 0.52 0.36 0.54 0.53
0.00 0.00 0.00 0.00 0.00 0.00 0.00 0.00 0.00 0.00 0.04 0.06 0.13 0.05 0.00 0.03 0.06 0.01 0.00 0.00 0.07 0.11 0.10 0.04 0.04 0.04 0.00 0.02 0.05 0.04 0.04 0.12 0.37 0.54 1.12 2.10 2.74 2.23 1.53 1.36 0.91 0.66 0.57 0.48
0.00 0.00 0.00 0.00 0.00 0.01 0.00 0.00 0.00 0.00 0.07 0.08 0.05 0.01 0.02 0.07 0.12 0.05 0.01 0.00 0.00 0.06 0.04 0.03 0.01 0.02 0.01 0.02 0.03 0.03 0.04 0.04 0.05 0.12 0.24 0.39 0.79 1.31 1.62 1.53 1.11 0.85 0.76 0.58
0.00 0.00 0.00 0.00 0.00 0.00 0.00 0.00 0.00 0.02 0.04 0.03 0.01 0.05 0.27 0.05 0.01 0.02 0.00 0.00 0.00 0.00 0.00 0.00 0.01 0.02 0.02 0.00 0.00 0.01 0.02 0.04 0.07 0.10 0.07 0.14 0.25 0.43 0.75 1.12 1.03 0.65 0.56 0.59
0.00 0.00 0.00 0.00 0.00 0.00 0.00 0.00 0.00 0.01 0.02 0.06 0.05 0.04 0.16 0.10 0.01 0.01 0.00 0.00 0.00 0.00 0.00 0.00 0.00 0.00 0.00 0.00 0.01 0.03 0.04 0.05 0.11 0.17 0.17 0.16 0.29 0.41 0.34 0.43 0.80 0.77 0.54 0.54
0.00 0.01 0.00 0.00 0.00 0.00 0.00 0.00 0.00 0.02 0.03 0.05 0.01 0.00 0.00 0.01 0.01 0.00 0.00 0.00 0.00 0.00 0.00 0.00 0.00 0.00 0.00 0.00 0.01 0.03 0.03 0.01 0.06 0.06 0.06 0.04 0.08 0.24 0.45 0.62 0.64 0.56 0.56 0.50
0.02 0.01 0.00 0.00 0.00 0.00 0.00 0.00 0.01 0.00 0.02 0.07 0.03 0.01 0.00 0.00 0.01 0.00 0.00 0.00 0.00 0.00 0.00 0.00 0.00 0.00 0.00 0.00 0.01 0.01 0.01 0.01 0.07 0.09 0.05 0.04 0.02 0.03 0.06 0.12 0.21 0.32 0.46 0.46
0.25 0.12 0.03 0.00 0.00 0.00 0.01 0.01 0.00 0.00 0.00 0.01 0.00 0.00 0.00 0.01 0.01 0.01 0.00 0.00 0.00 0.00 0.00 0.00 0.00 0.00 0.00 0.00 0.01 0.01 0.02 0.02 0.02 0.17 0.09 0.02 0.01 0.00 0.00 0.00 0.01 0.01 0.03 0.08
0.17 0.38 0.34 0.07 0.02 0.01 0.00 0.01 0.00 0.00 0.00 0.00 0.00 0.00 0.00 0.00 0.00 0.00 0.00 0.00 0.00 0.00 0.00 0.00 0.00 0.00 0.00 0.01 0.01 0.01 0.02 0.03 0.03 0.07 0.06 0.03 0.01 0.00 0.00 0.00 0.00 0.00 0.00 0.01

GFSCGP_prec_precacc24_165.txt.gz
Total_Precipitation_Accumulation
0.00 0.00 0.00 0.00 0.00 0.00 0.09 0.11 0.06 0.45 0.10 0.13 0.12 0.05 0.02 0.07 0.05 0.38 0.27 0.03 0.01 0.01 0.03 0.01 0.00 0.01 0.03 0.02 0.01 0.01 0.01 0.03 0.03 0.01 0.02 0.07 0.00 0.00 0.01 0.01 0.11 0.07 0.07 0.06
0.00 0.00 0.00 0.00 0.00 0.00 0.00 0.02 0.01 0.19 0.12 0.17 0.26 0.21 0.10 0.03 0.01 0.07 0.10 0.05 0.08 0.10 0.05 0.02 0.01 0.02 0.03 0.01 0.00 0.00 0.01 0.01 0.00 0.00 0.00 0.04 0.04 0.00 0.00 0.02 0.05 0.05 0.03 0.04
0.00 0.00 0.00 0.00 0.00 0.00 0.00 0.00 0.00 0.01 0.05 0.13 0.19 0.36 0.80 0.18 0.06 0.07 0.04 0.01 0.05 0.06 0.08 0.09 0.04 0.02 0.03 0.01 0.00 0.00 0.02 0.03 0.00 0.00 0.00 0.03 0.03 0.02 0.05 0.05 0.02 0.00 0.02 0.03
0.00 0.00 0.00 0.00 0.00 0.00 0.00 0.00 0.00 0.00 0.01 0.12 0.10 0.48 1.23 0.59 0.17 0.06 0.03 0.02 0.06 0.06 0.09 0.27 0.17 0.04 0.01 0.02 0.03 0.01 0.04 0.06 0.00 0.01 0.00 0.01 0.05 0.02 0.00 0.01 0.01 0.00 0.02 0.01
0.00 0.00 0.00 0.00 0.00 0.00 0.00 0.00 0.00 0.00 0.00 0.01 0.03 0.10 0.36 0.58 0.19 0.14 0.05 0.02 0.07 0.09 0.02 0.01 0.05 0.05 0.11 0.08 0.31 0.24 0.09 0.07 0.07 0.03 0.05 0.03 0.00 0.00 0.00 0.00 0.00 0.01 0.03 0.02
0.00 0.00 0.00 0.00 0.00 0.00 0.00 0.00 0.00 0.00 0.00 0.00 0.01 0.02 0.07 0.08 0.07 0.48 0.39 0.17 0.09 0.12 0.05 0.05 0.11 0.11 0.15 0.47 0.70 0.26 0.13 0.06 0.04 0.02 0.10 0.09 0.04 0.11 0.02 0.01 0.01 0.02 0.00 0.01
0.00 0.00 0.00 0.00 0.00 0.00 0.00 0.00 0.00 0.00 0.00 0.00 0.00 0.01 0.06 0.05 0.04 0.26 0.79 0.33 0.17 0.08 0.12 0.09 0.09 0.03 0.03 0.12 0.41 0.19 0.13 0.08 0.02 0.02 0.05 0.05 0.05 0.12 0.18 0.17 0.02 0.00 0.00 0.00
0.00 0.00 0.00 0.00 0.00 0.00 0.00 0.00 0.00 0.00 0.02 0.01 0.01 0.02 0.05 0.06 0.02 0.03 0.03 0.10 0.17 0.12 0.10 0.11 0.14 0.10 0.01 0.01 0.05 0.08 0.14 0.05 0.01 0.01 0.03 0.05 0.06 0.03 0.02 0.02 0.01 0.00 0.00 0.01
0.00 0.00 0.00 0.00 0.00 0.00 0.00 0.00 0.00 0.00 0.02 0.05 0.02 0.01 0.01 0.02 0.01 0.03 0.04 0.13 0.15 0.11 0.06 0.04 0.09 0.06 0.01 0.01 0.01 0.15 0.49 0.23 0.08 0.00 0.04 0.07 0.05 0.03 0.01 0.01 0.02 0.00 0.00 0.01
0.00 0.00 0.00 0.00 0.00 0.00 0.00 0.00 0.00 0.00 0.00 0.01 0.03 0.01 0.00 0.00 0.00 0.01 0.05 0.12 0.13 0.15 0.11 0.04 0.03 0.07 0.05 0.04 0.06 0.09 0.11 0.21 0.08 0.01 0.01 0.01 0.01 0.02 0.05 0.06 0.05 0.01 0.01 0.02
0.00 0.00 0.00 0.00 0.00 0.00 0.00 0.00 0.00 0.00 0.00 0.00 0.00 0.04 0.01 0.03 0.03 0.00 0.04 0.07 0.09 0.07 0.05 0.01 0.02 0.05 0.08 0.06 0.02 0.05 0.14 0.17 0.14 0.08 0.03 0.00 0.00 0.00 0.04 0.05 0.06 0.03 0.09 0.16
0.00 0.00 0.00 0.00 0.00 0.00 0.00 0.00 0.00 0.00 0.00 0.00 0.00 0.00 0.01 0.00 0.00 0.01 0.13 0.12 0.18 0.05 0.02 0.02 0.03 0.08 0.05 0.08 0.02 0.07 0.09 0.02 0.06 0.04 0.09 0.01 0.00 0.00 0.01 0.02 0.07 0.08 0.07 0.18
0.00 0.00 0.00 0.00 0.00 0.00 0.00 0.00 0.00 0.00 0.00 0.00 0.00 0.00 0.00 0.00 0.00 0.00 0.53 0.53 0.24 0.19 0.17 0.09 0.07 0.08 0.08 0.04 0.07 0.22 0.29 0.27 0.27 0.16 0.06 0.07 0.02 0.01 0.00 0.00 0.00 0.04 0.05 0.10
0.00 0.00 0.00 0.00 0.00 0.00 0.00 0.00 0.00 0.00 0.00 0.00 0.00 0.00 0.00 0.00 0.00 0.00 0.18 0.91 0.72 0.43 0.63 0.34 0.40 0.28 0.29 0.23 0.36 0.52 0.66 0.46 0.45 0.58 0.63 0.28 0.17 0.09 0.03 0.02 0.01 0.00 0.03 0.08
0.00 0.00 0.00 0.00 0.00 0.00 0.01 0.00 0.00 0.00 0.00 0.00 0.00 0.00 0.00 0.00 0.00 0.00 0.05 0.11 0.26 0.36 0.36 0.34 0.46 0.38 0.63 0.60 0.51 0.61 1.29 1.45 0.89 0.91 1.24 1.34 1.05 0.75 0.50 0.30 0.15 0.07 0.11 0.10
0.00 0.00 0.00 0.00 0.00 0.00 0.00 0.01 0.00 0.00 0.00 0.00 0.00 0.00 0.00 0.00 0.00 0.03 0.08 0.15 0.16 0.16 0.12 0.24 0.34 0.28 0.32 0.59 0.76 1.06 1.57 1.76 1.10 0.79 0.75 0.98 1.52 1.81 1.00 0.68 0.56 0.53 0.37 0.20
0.00 0.00 0.00 0.00 0.00 0.00 0.05 0.01 0.00 0.00 0.00 0.00 0.00 0.00 0.00 0.00 0.03 0.07 0.10 0.09 0.06 0.19 0.20 0.09 0.15 0.19 0.13 0.17 0.29 0.36 0.60 1.02 1.43 1.18 0.81 0.83 1.22 1.80 1.79 0.67 0.56 0.48 0.51 0.57
0.00 0.00 0.00 0.00 0.00 0.00 0.00 0.00 0.00 0.00 0.01 0.00 0.00 0.00 0.00 0.01 0.01 0.02 0.00 0.04 0.08 0.09 0.12 0.06 0.04 0.01 0.01 0.04 0.07 0.08 0.14 0.38 0.57 0.96 1.34 1.19 1.15 1.68 1.93 1.10 0.65 0.59 0.72 0.73
0.00 0.00 0.00 0.00 0.00 0.00 0.00 0.00 0.00 0.01 0.01 0.00 0.00 0.00 0.00 0.01 0.02 0.00 0.00 0.00 0.07 0.11 0.10 0.04 0.04 0.04 0.00 0.02 0.05 0.04 0.03 0.10 0.34 0.47 0.94 1.82 2.46 2.36 2.59 2.96 1.84 1.15 1.03 0.70
0.00 0.00 0.00 0.00 0.00 0.01 0.00 0.01 0.00 0.00 0.01 0.00 0.00 0.00 0.00 0.00 0.02 0.00 0.01 0.00 0.00 0.06 0.04 0.03 0.01 0.01 0.01 0.02 0.03 0.03 0.04 0.04 0.05 0.12 0.20 0.24 0.60 1.11 1.61 1.95 2.13 1.84 1.40 1.04
0.00 0.00 0.00 0.00 0.00 0.00 0.00 0.00 0.00 0.01 0.00 0.00 0.00 0.00 0.00 0.00 0.00 0.00 0.00 0.00 0.00 0.00 0.00 0.00 0.01 0.02 0.02 0.00 0.00 0.01 0.02 0.05 0.08 0.11 0.07 0.09 0.17 0.29 0.62 1.08 1.34 1.63 1.08 0.82
0.00 0.00 0.00 0.00 0.00 0.00 0.00 0.00 0.00 0.00 0.01 0.04 0.03 0.02 0.00 0.00 0.00 0.00 0.00 0.00 0.01 0.02 0.02 0.00 0.00 0.00 0.00 0.00 0.02 0.03 0.06 0.06 0.11 0.17 0.19 0.16 0.15 0.11 0.21 0.36 0.84 0.92 0.69 0.69
0.02 0.02 0.01 0.00 0.00 0.00 0.00 0.00 0.00 0.01 0.02 0.04 0.01 0.00 0.00 0.00 0.00 0.00 0.00 0.00 0.00 0.00 0.00 0.00 0.00 0.00 0.00 0.00 0.01 0.03 0.04 0.02 0.07 0.06 0.05 0.03 0.03 0.10 0.16 0.38 0.48 0.51 0.56 0.50
0.05 0.07 0.10 0.05 0.00 0.00 0.00 0.01 0.01 0.01 0.02 0.03 0.01 0.01 0.00 0.00 0.01 0.00 0.00 0.00 0.00 0.00 0.00 0.00 0.00 0.00 0.00 0.00 0.01 0.01 0.01 0.01 0.07 0.08 0.05 0.03 0.02 0.02 0.04 0.07 0.13 0.26 0.45 0.46
0.29 0.20 0.09 0.10 0.08 0.02 0.02 0.02 0.00 0.00 0.00 0.01 0.01 0.00 0.00 0.01 0.01 0.01 0.00 0.00 0.00 0.00 0.00 0.00 0.00 0.00 0.00 0.00 0.01 0.01 0.02 0.02 0.02 0.16 0.07 0.02 0.01 0.00 0.00 0.00 0.01 0.01 0.02 0.09
0.17 0.42 0.38 0.11 0.09 0.10 0.03 0.02 0.00 0.00 0.00 0.00 0.00 0.00 0.00 0.00 0.00 0.00 0.00 0.00 0.00 0.00 0.00 0.00 0.00 0.00 0.00 0.01 0.02 0.01 0.03 0.02 0.01 0.07 0.06 0.03 0.01 0.00 0.00 0.00 0.00 0.00 0.01 0.01

GFSCGP_prec_precacc24_168.txt.gz
Total_Precipitation_Accumulation
0.00 0.00 0.00 0.00 0.00 0.00 0.09 0.11 0.06 0.45 0.10 0.12 0.14 0.05 0.01 0.07 0.06 0.42 0.33 0.04 0.02 0.02 0.03 0.01 0.00 0.01 0.03 0.02 0.01 0.01 0.01 0.03 0.01 0.00 0.02 0.04 0.00 0.02 0.02 0.03 0.11 0.07 0.07 0.06
0.00 0.00 0.00 0.00 0.00 0.00 0.00 0.02 0.01 0.17 0.13 0.19 0.40 0.31 0.14 0.02 0.03 0.14 0.14 0.08 0.09 0.10 0.05 0.02 0.01 0.02 0.03 0.01 0.00 0.00 0.01 0.01 0.00 0.00 0.00 0.04 0.05 0.02 0.04 0.05 0.04 0.07 0.03 0.03
0.00 0.00 0.00 0.00 0.00 0.00 0.00 0.00 0.00 0.01 0.06 0.20 0.30 0.41 0.85 0.20 0.06 0.09 0.10 0.04 0.08 0.07 0.07 0.08 0.04 0.02 0.02 0.01 0.00 0.00 0.02 0.03 0.00 0.00 0.00 0.05 0.05 0.03 0.05 0.07 0.01 0.03 0.02 0.03
0.00 0.00 0.00 0.00 0.00 0.00 0.00 0.00 0.00 0.01 0.01 0.15 0.12 0.49 1.24 0.60 0.16 0.05 0.04 0.02 0.06 0.07 0.10 0.27 0.17 0.04 0.01 0.02 0.03 0.01 0.04 0.06 0.00 0.02 0.00 0.03 0.06 0.02 0.01 0.01 0.00 0.02 0.03 0.01
0.00 0.00 0.00 0.00 0.00 0.00 0.00 0.00 0.00 0.00 0.00 0.01 0.03 0.11 0.36 0.56 0.19 0.13 0.05 0.02 0.07 0.10 0.03 0.02 0.04 0.06 0.11 0.08 0.33 0.24 0.09 0.07 0.07 0.03 0.05 0.03 0.00 0.01 0.01 0.00 0.00 0.02 0.03 0.02
0.00 0.00 0.00 0.00 0.00 0.00 0.00 0.00 0.00 0.00 0.00 0.00 0.01 0.02 0.06 0.07 0.05 0.48 0.38 0.17 0.09 0.12 0.05 0.06 0.12 0.12 0.16 0.47 0.80 0.29 0.14 0.06 0.04 0.02 0.10 0.09 0.05 0.11 0.04 0.08 0.03 0.02 0.00 0.01
0.00 0.00 0.00 0.00 0.00 0.00 0.00 0.00 0.00 0.00 0.00 0.00 0.01 0.02 0.04 0.03 0.03 0.25 0.77 0.33 0.17 0.08 0.12 0.09 0.10 0.03 0.03 0.11 0.40 0.19 0.13 0.08 0.02 0.02 0.05 0.05 0.06 0.13 0.19 0.18 0.03 0.00 0.00 0.00
0.00 0.00 0.00 0.00 0.00 0.00 0.00 0.00 0.00 0.00 0.02 0.01 0.01 0.02 0.04 0.00 0.01 0.04 0.02 0.08 0.16 0.12 0.10 0.11 0.14 0.11 0.01 0.01 0.05 0.09 0.14 0.05 0.01 0.01 0.03 0.06 0.08 0.06 0.02 0.02 0.02 0.00 0.00 0.01
0.00 0.00 0.00 0.00 0.00 0.00 0.00 0.00 0.00 0.00 0.02 0.05 0.02 0.01 0.01 0.00 0.01 0.01 0.01 0.05 0.08 0.11 0.06 0.05 0.10 0.07 0.01 0.01 0.01 0.16 0.49 0.24 0.08 0.00 0.04 0.07 0.05 0.03 0.01 0.00 0.03 0.01 0.01 0.00
0.00 0.00 0.00 0.00 0.00 0.00 0.00 0.00 0.00 0.00 0.00 0.01 0.03 0.01 0.00 0.01 0.01 0.01 0.00 0.03 0.06 0.12 0.11 0.05 0.04 0.08 0.05 0.05 0.06 0.09 0.13 0.22 0.08 0.01 0.01 0.01 0.01 0.02 0.05 0.05 0.05 0.04 0.03 0.02
0.00 0.00 0.00 0.00 0.00 0.00 0.00 0.00 0.00 0.00 0.00 0.00 0.00 0.03 0.01 0.03 0.05 0.02 0.00 0.01 0.01 0.04 0.06 0.02 0.04 0.06 0.09 0.08 0.03 0.04 0.16 0.23 0.16 0.08 0.03 0.00 0.00 0.00 0.04 0.04 0.07 0.07 0.13 0.17
0.00 0.00 0.00 0.00 0.00 0.00 0.00 0.00 0.00 0.00 0.00 0.00 0.00 0.00 0.01 0.00 0.00 0.02 0.00 0.02 0.03 0.01 0.00 0.00 0.02 0.05 0.05 0.10 0.01 0.00 0.02 0.05 0.16 0.05 0.09 0.03 0.01 0.00 0.01 0.02 0.07 0.09 0.14 0.25
0.00 0.00 0.00 0.00 0.00 0.00 0.00 0.00 0.00 0.00 0.00 0.00 0.00 0.00 0.00 0.00 0.00 0.01 0.00 0.01 0.01 0.01 0.01 0.01 0.00 0.01 0.05 0.04 0.04 0.08 0.12 0.08 0.12 0.11 0.06 0.11 0.03 0.01 0.00 0.00 0.00 0.04 0.06 0.16
0.00 0.00 0.00 0.00 0.00 0.00 0.00 0.00 0.00 0.00 0.00 0.00 0.01 0.01 0.00 0.00 0.00 0.00 0.00 0.00 0.00 0.04 0.16 0.12 0.08 0.04 0.09 0.10 0.17 0.32 0.29 0.29 0.26 0.40 0.60 0.40 0.39 0.27 0.07 0.04 0.02 0.00 0.03 0.08
0.00 0.00 0.00 0.00 0.00 0.00 0.01 0.00 0.00 0.00 0.00 0.00 0.00 0.01 0.00 0.00 0.00 0.00 0.00 0.00 0.01 0.05 0.16 0.20 0.26 0.19 0.33 0.38 0.32 0.42 0.44 0.62 0.66 0.88 1.38 1.47 1.31 1.06 0.81 0.74 0.47 0.22 0.18 0.13
0.00 0.00 0.00 0.00 0.00 0.00 0.00 0.01 0.00 0.00 0.00 0.00 0.00 0.00 0.01 0.00 0.00 0.01 0.00 0.05 0.03 0.03 0.07 0.22 0.32 0.24 0.26 0.51 0.65 0.75 0.92 1.02 0.61 0.73 0.80 1.05 1.64 1.90 1.11 0.87 0.79 0.76 0.56 0.34
0.00 0.00 0.00 0.00 0.00 0.00 0.05 0.00 0.00 0.00 0.00 0.00 0.00 0.00 0.01 0.00 0.01 0.03 0.02 0.07 0.03 0.09 0.11 0.06 0.15 0.17 0.12 0.17 0.29 0.35 0.43 0.78 1.19 1.09 0.84 0.89 1.32 2.21 2.16 0.87 0.71 0.73 0.70 0.64
0.00 0.00 0.00 0.00 0.00 0.00 0.00 0.00 0.00 0.00 0.01 0.00 0.00 0.00 0.00 0.01 0.00 0.01 0.00 0.04 0.08 0.08 0.09 0.06 0.04 0.01 0.01 0.04 0.07 0.08 0.13 0.31 0.47 0.90 1.31 1.14 1.16 1.73 2.02 1.20 0.80 0.71 0.75 0.77
0.00 0.00 0.00 0.00 0.00 0.00 0.00 0.00 0.00 0.01 0.00 0.00 0.00 0.00 0.00 0.01 0.00 0.00 0.00 0.00 0.07 0.11 0.10 0.04 0.04 0.04 0.00 0.02 0.05 0.04 0.03 0.08 0.28 0.41 0.84 1.63 2.30 2.09 2.32 2.79 1.75 1.10 1.04 0.79
0.00 0.00 0.00 0.00 0.00 0.01 0.00 0.01 0.00 0.00 0.00 0.00 0.00 0.00 0.00 0.00 0.00 0.00 0.00 0.00 0.00 0.06 0.04 0.03 0.01 0.01 0.01 0.02 0.03 0.03 0.04 0.03 0.05 0.11 0.19 0.19 0.41 0.83 1.10 1.45 1.89 1.76 1.72 1.43
0.00 0.00 0.00 0.00 0.00 0.00 0.00 0.01 0.00 0.01 0.00 0.00 0.00 0.00 0.00 0.00 0.00 0.00 0.00 0.00 0.00 0.00 0.00 0.00 0.01 0.02 0.02 0.00 0.00 0.01 0.01 0.04 0.07 0.07 0.07 0.09 0.15 0.18 0.34 0.67 1.11 1.56 1.37 1.20
0.00 0.00 0.00 0.00 0.00 0.00 0.00 0.00 0.00 0.00 0.00 0.01 0.00 0.00 0.00 0.00 0.00 0.00 0.00 0.00 0.01 0.02 0.02 0.00 0.00 0.00 0.00 0.00 0.01 0.03 0.05 0.06 0.10 0.13 0.18 0.17 0.15 0.09 0.11 0.18 0.44 0.71 0.67 0.68
0.03 0.02 0.01 0.00 0.00 0.00 0.00 0.00 0.00 0.00 0.00 0.00 0.00 0.00 0.00 0.00 0.00 0.00 0.00 0.00 0.00 0.00 0.00 0.00 0.00 0.00 0.00 0.00 0.01 0.03 0.04 0.03 0.05 0.05 0.03 0.03 0.03 0.10 0.10 0.10 0.09 0.15 0.43 0.51
0.11 0.07 0.10 0.05 0.00 0.00 0.01 0.01 0.01 0.01 0.01 0.00 0.00 0.00 0.00 0.00 0.01 0.00 0.00 0.00 0.00 0.00 0.00 0.00 0.00 0.00 0.00 0.00 0.01 0.02 0.01 0.01 0.06 0.06 0.04 0.03 0.02 0.02 0.04 0.07 0.10 0.10 0.11 0.16
0.29 0.20 0.09 0.10 0.08 0.02 0.03 0.03 0.00 0.00 0.00 0.01 0.03 0.00 0.00 0.01 0.01 0.01 0.00 0.00 0.00 0.00 0.00 0.00 0.00 0.00 0.00 0.00 0.01 0.01 0.02 0.02 0.02 0.14 0.05 0.01 0.00 0.00 0.00 0.00 0.01 0.00 0.00 0.02
0.17 0.42 0.38 0.11 0.09 0.10 0.04 0.12 0.07 0.01 0.01 0.00 0.07 0.11 0.05 0.00 0.00 0.00 0.00 0.00 0.00 0.00 0.00 0.00 0.00 0.00 0.00 0.01 0.02 0.01 0.03 0.02 0.01 0.07 0.07 0.03 0.01 0.00 0.00 0.00 0.00 0.00 0.01 0.01

GFSCGP_prec_precacc24_171.txt.gz
Total_Precipitation_Accumulation
0.00 0.00 0.00 0.00 0.00 0.00 0.09 0.11 0.06 0.45 0.10 0.13 0.14 0.05 0.01 0.07 0.06 0.42 0.34 0.05 0.01 0.02 0.04 0.01 0.00 0.01 0.03 0.02 0.00 0.01 0.01 0.03 0.01 0.00 0.00 0.01 0.00 0.02 0.02 0.03 0.11 0.07 0.07 0.06
0.00 0.00 0.00 0.00 0.00 0.00 0.00 0.02 0.01 0.17 0.13 0.19 0.42 0.31 0.12 0.02 0.03 0.14 0.14 0.09 0.08 0.11 0.05 0.02 0.01 0.02 0.03 0.01 0.00 0.00 0.01 0.01 0.00 0.00 0.00 0.01 0.02 0.02 0.04 0.05 0.03 0.06 0.03 0.03
0.00 0.00 0.00 0.00 0.00 0.00 0.00 0.00 0.00 0.01 0.06 0.21 0.30 0.40 0.82 0.14 0.02 0.09 0.10 0.05 0.08 0.05 0.07 0.08 0.04 0.02 0.02 0.01 0.00 0.00 0.02 0.03 0.00 0.00 0.00 0.02 0.03 0.03 0.05 0.07 0.01 0.03 0.02 0.03
0.00 0.00 0.00 0.00 0.00 0.00 0.00 0.00 0.00 0.01 0.01 0.15 0.12 0.49 1.24 0.59 0.10 0.01 0.03 0.02 0.05 0.06 0.10 0.27 0.17 0.04 0.01 0.02 0.03 0.01 0.04 0.06 0.00 0.02 0.00 0.03 0.06 0.03 0.01 0.01 0.00 0.02 0.03 0.00
0.00 0.00 0.00 0.00 0.00 0.00 0.00 0.00 0.00 0.00 0.00 0.01 0.04 0.11 0.36 0.54 0.11 0.07 0.04 0.01 0.05 0.07 0.02 0.02 0.04 0.06 0.11 0.08 0.33 0.24 0.09 0.07 0.07 0.03 0.05 0.03 0.00 0.01 0.01 0.00 0.00 0.02 0.03 0.00
0.00 0.00 0.00 0.00 0.00 0.00 0.00 0.00 0.00 0.00 0.00 0.00 0.01 0.03 0.06 0.06 0.01 0.39 0.32 0.13 0.08 0.10 0.04 0.05 0.04 0.05 0.13 0.47 0.80 0.29 0.15 0.07 0.04 0.02 0.10 0.09 0.05 0.11 0.04 0.08 0.03 0.02 0.01 0.00
0.00 0.00 0.00 0.00 0.00 0.00 0.00 0.00 0.00 0.00 0.00 0.00 0.01 0.02 0.04 0.02 0.01 0.25 0.74 0.27 0.14 0.08 0.11 0.08 0.06 0.01 0.02 0.11 0.40 0.19 0.14 0.10 0.02 0.02 0.05 0.05 0.06 0.13 0.19 0.18 0.03 0.00 0.02 0.01
0.00 0.00 0.00 0.00 0.00 0.00 0.00 0.00 0.00 0.00 0.02 0.01 0.01 0.02 0.04 0.00 0.01 0.04 0.01 0.02 0.06 0.09 0.09 0.09 0.14 0.08 0.01 0.01 0.05 0.09 0.14 0.06 0.01 0.01 0.03 0.06 0.09 0.06 0.03 0.02 0.02 0.00 0.00 0.01
0.00 0.00 0.00 0.00 0.00 0.00 0.00 0.00 0.00 0.00 0.02 0.05 0.02 0.01 0.01 0.00 0.01 0.01 0.00 0.03 0.02 0.07 0.05 0.03 0.09 0.06 0.01 0.01 0.01 0.16 0.49 0.24 0.08 0.01 0.05 0.07 0.05 0.03 0.01 0.00 0.03 0.01 0.01 0.00
0.00 0.00 0.00 0.00 0.00 0.00 0.00 0.00 0.00 0.00 0.00 0.01 0.03 0.01 0.00 0.01 0.01 0.01 0.00 0.00 0.00 0.05 0.08 0.04 0.04 0.08 0.05 0.05 0.06 0.09 0.14 0.27 0.11 0.01 0.01 0.01 0.01 0.02 0.06 0.05 0.05 0.04 0.02 0.02
0.00 0.00 0.00 0.00 0.00 0.00 0.00 0.00 0.00 0.00 0.00 0.00 0.00 0.03 0.01 0.03 0.05 0.02 0.00 0.00 0.00 0.00 0.02 0.01 0.03 0.06 0.06 0.05 0.09 0.05 0.17 0.24 0.17 0.08 0.03 0.00 0.00 0.00 0.04 0.04 0.07 0.07 0.12 0.16
0.00 0.00 0.00 0.00 0.00 0.00 0.00 0.00 0.00 0.00 0.00 0.00 0.00 0.00 0.01 0.00 0.00 0.02 0.00 0.02 0.02 0.01 0.00 0.00 0.02 0.04 0.04 0.05 0.02 0.04 0.03 0.06 0.17 0.05 0.09 0.03 0.01 0.00 0.01 0.02 0.07 0.09 0.13 0.25
0.00 0.00 0.00 0.00 0.00 0.00 0.00 0.00 0.00 0.00 0.00 0.00 0.00 0.00 0.00 0.00 0.00 0.01 0.00 0.01 0.01 0.00 0.00 0.00 0.00 0.01 0.05 0.03 0.02 0.04 0.05 0.06 0.10 0.12 0.08 0.11 0.03 0.06 0.01 0.00 0.00 0.04 0.07 0.21
0.00 0.00 0.00 0.00 0.00 0.00 0.00 0.00 0.00 0.00 0.00 0.00 0.01 0.01 0.00 0.00 0.00 0.00 0.00 0.00 0.00 0.00 0.01 0.04 0.02 0.02 0.04 0.05 0.06 0.15 0.11 0.12 0.17 0.40 0.61 0.41 0.44 0.46 0.31 0.25 0.14 0.08 0.06 0.10
0.00 0.00 0.00 0.00 0.00 0.00 0.01 0.00 0.00 0.00 0.00 0.00 0.00 0.01 0.00 0.00 0.00 0.00 0.00 0.00 0.00 0.00 0.01 0.10 0.15 0.13 0.10 0.12 0.10 0.20 0.26 0.42 0.46 0.70 1.32 1.47 1.39 1.17 1.09 1.25 1.00 0.46 0.31 0.19
0.00 0.00 0.00 0.00 0.00 0.00 0.00 0.01 0.00 0.00 0.00 0.00 0.00 0.00 0.01 0.00 0.00 0.00 0.00 0.00 0.00 0.00 0.04 0.05 0.06 0.08 0.11 0.22 0.30 0.33 0.35 0.42 0.42 0.64 0.79 1.04 1.61 2.00 1.24 0.98 1.19 1.31 0.76 0.46
0.00 0.00 0.00 0.00 0.00 0.00 0.05 0.00 0.00 0.00 0.00 0.00 0.00 0.00 0.01 0.00 0.00 0.00 0.00 0.00 0.00 0.01 0.08 0.03 0.03 0.07 0.09 0.14 0.26 0.34 0.39 0.53 0.71 0.77 0.79 0.88 1.30 2.25 2.34 1.06 0.83 0.80 0.83 0.77
0.00 0.00 0.00 0.00 0.00 0.00 0.00 0.00 0.00 0.00 0.01 0.00 0.00 0.00 0.00 0.00 0.00 0.00 0.00 0.00 0.00 0.01 0.06 0.05 0.03 0.00 0.01 0.04 0.07 0.08 0.13 0.31 0.41 0.71 1.00 0.97 1.12 1.87 2.25 1.39 0.91 0.80 0.87 0.82
0.00 0.00 0.00 0.00 0.00 0.00 0.00 0.00 0.00 0.01 0.00 0.00 0.00 0.00 0.00 0.00 0.00 0.00 0.00 0.00 0.00 0.01 0.01 0.02 0.04 0.04 0.00 0.02 0.05 0.04 0.03 0.08 0.27 0.40 0.78 1.45 2.18 2.06 2.36 2.85 1.81 1.12 1.06 0.79
0.00 0.00 0.00 0.00 0.00 0.01 0.00 0.01 0.00 0.00 0.00 0.00 0.00 0.00 0.00 0.00 0.00 0.00 0.00 0.00 0.00 0.03 0.01 0.02 0.01 0.01 0.01 0.02 0.03 0.03 0.04 0.03 0.05 0.10 0.18 0.18 0.34 0.76 1.06 1.41 1.77 1.68 1.59 1.35
0.00 0.00 0.00 0.00 0.00 0.00 0.00 0.01 0.00 0.01 0.00 0.00 0.00 0.00 0.00 0.00 0.00 0.00 0.00 0.00 0.00 0.00 0.00 0.00 0.01 0.02 0.02 0.00 0.00 0.01 0.01 0.04 0.07 0.07 0.07 0.07 0.12 0.14 0.27 0.52 0.90 1.43 1.25 1.04
0.00 0.00 0.00 0.00 0.00 0.00 0.00 0.00 0.00 0.00 0.00 0.01 0.00 0.00 0.00 0.00 0.00 0.00 0.00 0.00 0.01 0.02 0.02 0.00 0.00 0.00 0.00 0.00 0.01 0.03 0.05 0.06 0.10 0.13 0.18 0.16 0.15 0.09 0.09 0.12 0.26 0.37 0.38 0.38
0.04 0.03 0.01 0.00 0.00 0.00 0.00 0.00 0.00 0.00 0.00 0.00 0.00 0.00 0.00 0.00 0.00 0.00 0.00 0.00 0.00 0.00 0.00 0.00 0.00 0.00 0.00 0.00 0.00 0.03 0.04 0.03 0.04 0.04 0.02 0.02 0.03 0.10 0.10 0.10 0.09 0.10 0.15 0.11
0.16 0.08 0.11 0.06 0.01 0.00 0.01 0.01 0.01 0.01 0.01 0.00 0.00 0.00 0.00 0.00 0.00 0.00 0.00 0.00 0.00 0.00 0.00 0.00 0.00 0.00 0.00 0.00 0.00 0.02 0.01 0.01 0.04 0.03 0.02 0.03 0.02 0.03 0.05 0.07 0.10 0.10 0.10 0.03
0.30 0.20 0.09 0.10 0.08 0.02 0.03 0.03 0.00 0.00 0.00 0.01 0.03 0.00 0.00 0.00 0.00 0.00 0.00 0.00 0.00 0.00 0.00 0.01 0.02 0.00 0.00 0.00 0.01 0.01 0.01 0.02 0.02 0.12 0.03 0.00 0.01 0.00 0.00 0.00 0.01 0.00 0.00 0.01
0.17 0.42 0.38 0.11 0.09 0.10 0.04 0.12 0.07 0.01 0.01 0.00 0.07 0.12 0.06 0.01 0.00 0.00 0.00 0.00 0.00 0.00 0.02 0.02 0.01 0.00 0.00 0.01 0.02 0.01 0.03 0.02 0.01 0.07 0.06 0.02 0.00 0.00 0.00 0.00 0.00 0.00 0.01 0.01

GFSCGP_prec_precacc24_174.txt.gz
Total_Precipitation_Accumulation
0.00 0.00 0.00 0.00 0.00 0.00 0.09 0.11 0.06 0.45 0.10 0.13 0.14 0.05 0.01 0.06 0.04 0.41 0.31 0.04 0.00 0.02 0.03 0.01 0.00 0.00 0.00 0.01 0.00 0.01 0.01 0.02 0.00 0.00 0.00 0.00 0.00 0.02 0.02 0.03 0.10 0.06 0.06 0.05
0.00 0.00 0.00 0.00 0.00 0.00 0.00 0.02 0.01 0.17 0.13 0.19 0.41 0.30 0.12 0.02 0.03 0.12 0.13 0.07 0.06 0.03 0.04 0.02 0.01 0.01 0.01 0.00 0.00 0.00 0.01 0.01 0.00 0.00 0.00 0.01 0.01 0.02 0.04 0.05 0.03 0.04 0.03 0.02
0.00 0.00 0.00 0.00 0.00 0.00 0.00 0.00 0.00 0.01 0.06 0.21 0.29 0.39 0.80 0.13 0.02 0.08 0.09 0.05 0.07 0.03 0.05 0.08 0.04 0.01 0.01 0.01 0.00 0.00 0.02 0.03 0.00 0.00 0.00 0.01 0.02 0.03 0.05 0.07 0.01 0.03 0.00 0.01
0.00 0.00 0.00 0.00 0.00 0.00 0.00 0.00 0.00 0.01 0.01 0.15 0.11 0.48 1.23 0.53 0.05 0.01 0.03 0.02 0.05 0.05 0.05 0.26 0.16 0.04 0.01 0.02 0.02 0.01 0.04 0.06 0.00 0.02 0.00 0.02 0.06 0.03 0.01 0.01 0.00 0.02 0.01 0.00
0.00 0.00 0.00 0.00 0.00 0.00 0.00 0.00 0.00 0.00 0.00 0.02 0.03 0.11 0.36 0.54 0.09 0.05 0.03 0.01 0.03 0.06 0.01 0.01 0.04 0.06 0.10 0.08 0.32 0.24 0.09 0.07 0.07 0.03 0.05 0.03 0.00 0.01 0.01 0.00 0.00 0.01 0.02 0.00
0.00 0.00 0.00 0.00 0.00 0.00 0.00 0.00 0.00 0.00 0.02 0.01 0.01 0.03 0.06 0.06 0.01 0.39 0.29 0.06 0.02 0.06 0.04 0.03 0.02 0.04 0.11 0.44 0.80 0.28 0.15 0.07 0.04 0.03 0.10 0.09 0.05 0.11 0.04 0.08 0.03 0.00 0.00 0.00
0.00 0.00 0.00 0.00 0.00 0.00 0.00 0.00 0.00 0.00 0.00 0.00 0.01 0.02 0.04 0.02 0.01 0.25 0.74 0.24 0.05 0.04 0.09 0.07 0.03 0.01 0.02 0.11 0.40 0.16 0.15 0.12 0.04 0.02 0.05 0.05 0.06 0.13 0.19 0.18 0.03 0.00 0.02 0.01
0.00 0.00 0.00 0.00 0.00 0.00 0.00 0.00 0.00 0.00 0.02 0.01 0.01 0.02 0.04 0.00 0.01 0.04 0.01 0.02 0.04 0.04 0.09 0.07 0.09 0.04 0.01 0.01 0.05 0.07 0.13 0.08 0.03 0.01 0.03 0.06 0.09 0.06 0.03 0.02 0.02 0.00 0.00 0.01
0.00 0.00 0.00 0.00 0.00 0.00 0.00 0.00 0.00 0.00 0.02 0.05 0.02 0.01 0.01 0.00 0.01 0.01 0.00 0.03 0.02 0.02 0.04 0.03 0.05 0.03 0.01 0.01 0.01 0.17 0.48 0.22 0.10 0.02 0.05 0.07 0.05 0.03 0.01 0.00 0.03 0.01 0.01 0.00
0.00 0.00 0.00 0.00 0.00 0.00 0.00 0.00 0.00 0.00 0.00 0.01 0.03 0.01 0.00 0.01 0.01 0.01 0.00 0.00 0.00 0.01 0.02 0.03 0.03 0.04 0.03 0.04 0.05 0.09 0.13 0.18 0.11 0.05 0.04 0.01 0.01 0.02 0.06 0.05 0.05 0.04 0.02 0.02
0.00 0.00 0.00 0.00 0.00 0.00 0.00 0.00 0.00 0.00 0.00 0.00 0.00 0.03 0.01 0.03 0.05 0.02 0.00 0.00 0.00 0.00 0.01 0.01 0.02 0.03 0.06 0.05 0.08 0.05 0.17 0.17 0.16 0.09 0.07 0.01 0.00 0.00 0.04 0.04 0.07 0.08 0.14 0.16
0.00 0.00 0.00 0.00 0.00 0.00 0.00 0.00 0.00 0.00 0.00 0.00 0.00 0.00 0.01 0.00 0.00 0.02 0.00 0.02 0.02 0.01 0.00 0.00 0.02 0.02 0.03 0.05 0.02 0.04 0.03 0.06 0.13 0.04 0.13 0.05 0.01 0.00 0.01 0.02 0.07 0.09 0.14 0.25
0.00 0.00 0.00 0.00 0.00 0.00 0.00 0.00 0.00 0.00 0.00 0.00 0.00 0.00 0.00 0.00 0.00 0.01 0.00 0.01 0.01 0.00 0.00 0.00 0.00 0.00 0.03 0.02 0.02 0.04 0.04 0.04 0.04 0.09 0.08 0.12 0.04 0.07 0.02 0.01 0.01 0.06 0.09 0.20
0.00 0.00 0.00 0.00 0.00 0.00 0.00 0.00 0.00 0.00 0.00 0.00 0.01 0.01 0.00 0.00 0.00 0.00 0.00 0.00 0.00 0.00 0.00 0.01 0.01 0.01 0.03 0.05 0.05 0.12 0.08 0.07 0.10 0.31 0.54 0.40 0.45 0.47 0.35 0.34 0.33 0.22 0.14 0.12
0.00 0.00 0.00 0.00 0.00 0.00 0.01 0.00 0.00 0.00 0.00 0.00 0.00 0.01 0.00 0.00 0.00 0.00 0.00 0.00 0.00 0.00 0.00 0.01 0.04 0.04 0.06 0.12 0.10 0.19 0.25 0.41 0.45 0.62 1.18 1.41 1.40 1.18 1.10 1.34 1.25 0.74 0.40 0.22
0.00 0.00 0.00 0.00 0.00 0.00 0.00 0.01 0.00 0.00 0.00 0.00 0.00 0.00 0.01 0.00 0.00 0.00 0.00 0.00 0.00 0.00 0.00 0.01 0.03 0.05 0.10 0.22 0.30 0.31 0.33 0.34 0.37 0.55 0.62 0.87 1.50 1.95 1.25 0.98 1.27 1.42 0.84 0.47
0.00 0.00 0.00 0.00 0.00 0.01 0.05 0.00 0.00 0.00 0.00 0.00 0.00 0.00 0.01 0.00 0.00 0.00 0.00 0.00 0.00 0.00 0.00 0.00 0.01 0.02 0.07 0.14 0.26 0.32 0.39 0.46 0.56 0.61 0.66 0.75 1.09 2.17 2.34 1.09 0.94 0.99 0.96 0.80
0.00 0.00 0.00 0.00 0.00 0.00 0.00 0.00 0.00 0.00 0.01 0.00 0.00 0.00 0.00 0.00 0.00 0.00 0.00 0.00 0.00 0.00 0.01 0.01 0.00 0.00 0.01 0.04 0.07 0.08 0.13 0.31 0.40 0.68 0.90 0.85 0.93 1.51 2.04 1.43 1.04 1.02 1.04 0.96
0.00 0.00 0.00 0.00 0.00 0.00 0.00 0.00 0.00 0.01 0.00 0.00 0.00 0.00 0.00 0.00 0.00 0.00 0.00 0.00 0.00 0.00 0.00 0.02 0.00 0.03 0.00 0.01 0.02 0.03 0.03 0.08 0.27 0.39 0.73 1.33 1.95 1.91 2.15 2.68 1.74 1.12 1.13 0.89
0.00 0.00 0.00 0.00 0.00 0.01 0.00 0.01 0.00 0.00 0.00 0.00 0.00 0.00 0.00 0.00 0.00 0.00 0.00 0.00 0.00 0.01 0.00 0.00 0.00 0.01 0.01 0.00 0.02 0.03 0.04 0.03 0.05 0.10 0.18 0.17 0.28 0.62 0.94 1.33 1.72 1.66 1.58 1.32
0.00 0.00 0.00 0.00 0.00 0.00 0.00 0.01 0.00 0.01 0.00 0.00 0.00 0.00 0.00 0.00 0.00 0.00 0.00 0.00 0.00 0.00 0.00 0.00 0.00 0.02 0.02 0.00 0.00 0.01 0.01 0.04 0.07 0.07 0.06 0.07 0.12 0.14 0.27 0.51 0.89 1.42 1.24 1.02
0.00 0.00 0.00 0.00 0.00 0.00 0.00 0.00 0.00 0.00 0.00 0.01 0.00 0.00 0.00 0.00 0.00 0.00 0.00 0.00 0.01 0.02 0.02 0.00 0.00 0.00 0.00 0.00 0.01 0.03 0.05 0.06 0.10 0.13 0.16 0.15 0.15 0.09 0.09 0.12 0.24 0.35 0.37 0.37
0.05 0.03 0.01 0.00 0.00 0.00 0.00 0.00 0.00 0.00 0.00 0.00 0.00 0.00 0.00 0.00 0.00 0.00 0.00 0.00 0.00 0.00 0.00 0.00 0.00 0.00 0.00 0.00 0.00 0.03 0.04 0.03 0.03 0.03 0.01 0.02 0.03 0.10 0.10 0.10 0.08 0.10 0.14 0.10
0.18 0.10 0.12 0.06 0.01 0.01 0.01 0.01 0.01 0.01 0.01 0.00 0.00 0.00 0.00 0.00 0.00 0.00 0.00 0.00 0.00 0.00 0.00 0.00 0.00 0.01 0.00 0.00 0.00 0.02 0.01 0.01 0.02 0.01 0.01 0.01 0.01 0.02 0.04 0.07 0.10 0.10 0.10 0.03
0.31 0.23 0.10 0.11 0.08 0.03 0.03 0.03 0.00 0.00 0.00 0.01 0.03 0.00 0.00 0.00 0.00 0.00 0.00 0.00 0.00 0.00 0.00 0.02 0.04 0.02 0.00 0.00 0.01 0.01 0.01 0.02 0.02 0.10 0.02 0.00 0.01 0.01 0.00 0.00 0.01 0.01 0.00 0.02
0.17 0.42 0.38 0.11 0.09 0.10 0.04 0.12 0.07 0.01 0.01 0.00 0.07 0.12 0.06 0.01 0.00 0.00 0.00 0.00 0.00 0.00 0.02 0.03 0.03 0.00 0.01 0.01 0.02 0.01 0.03 0.02 0.00 0.05 0.05 0.02 0.01 0.00 0.00 0.00 0.00 0.00 0.01 0.01